Location: ???????
(55.3754°N, 39.3545°E)
Time: 08:02:08
(UTC+00:00)

Gbstr 26 Del rocket - Pass Details

Date: 14 April 2026
Orbit: 490 x 1216 km, 51.8° (Epoch: 13 May)

Event Time Altitude Azimuth Distance (km) Brightness Sun altitude
Exits shadow 23:38:07 47° 168° (SSE) 667 2.9 -19.1°
Drops below altitude 10° 23:41:36 10° 99° (E) 1,683 5.6 -18.8°
Sets 23:43:49 0° 93° (E) 2,583 6.7 -18.6°
